Dumas, Arkansas, United States (71639)
Lat: 33.89N, Lon: 91.49W
Wx Zone: ARZ065
Local Info
Past Weather Observations for Monday, November 17, 2014

NOTE: This archive is for the closest National Weather Service station to Dumas. Information may differ from the station used for current weather conditions.

Click here for Long-term Archive

Time Weather Temperature Dewpoint Humidity Pressure Winds Precip Visibility
23:53
Clear
28°F / -2°C 16°F / -9°C 59% 30.42 in
(1030 mb)
NW 5.8 mph
(NW 9 kph)
- 10SM
22:53
Clear
30°F / -1°C 16°F / -9°C 55% 30.42 in
(1030 mb)
NW 8.1 mph
(NW 13 kph)
- 10SM
21:53
Clear
30°F / -1°C 18°F / -8°C 59% 30.39 in
(1029 mb)
NW 5.8 mph
(NW 9 kph)
- 10SM
20:53
Clear
30°F / -1°C 18°F / -8°C 59% 30.36 in
(1028 mb)
NW 4.6 mph
(NW 7 kph)
- 10SM
19:53
Clear
34°F / 1°C 19°F / -7°C 56% 30.33 in
(1027 mb)
NW 8.1 mph
(NW 13 kph)
- 10SM
18:53
Clear
34°F / 1°C 19°F / -7°C 56% 30.33 in
(1027 mb)
WNW 5.8 mph
(WNW 9 kph)
- 10SM
17:53
Clear
36°F / 2°C 19°F / -7°C 52% 30.3 in
(1026 mb)
NW 8.1 mph
(NW 13 kph)
- 10SM
16:53
Clear
39°F / 4°C 18°F / -8°C 42% 30.27 in
(1025 mb)
NW 11.5 mph
(NW 19 kph)
- 10SM
15:53
Clear
43°F / 6°C 18°F / -8°C 36% 30.24 in
(1024 mb)
NW 13.8 mph
(NW 22 kph)
- 10SM
14:53
Clear
43°F / 6°C 19°F / -7°C 39% 30.24 in
(1024 mb)
WNW 10.4 mph
(WNW 17 kph)
- 10SM
13:53
Clear
43°F / 6°C 18°F / -8°C 36% 30.24 in
(1024 mb)
NW 10.4 mph
(NW 17 kph)
- 10SM
12:53
Clear
41°F / 5°C 18°F / -8°C 39% 30.24 in
(1024 mb)
NW 9.2 mph
(NW 15 kph)
- 10SM
11:53
Clear
39°F / 4°C 19°F / -7°C 45% 30.24 in
(1024 mb)
WNW 9.2 mph
(WNW 15 kph)
- 10SM
10:53
Clear
39°F / 4°C 21°F / -6°C 48% 30.27 in
(1025 mb)
NW 11.5 mph
(NW 19 kph)
- 10SM
09:53
Clear
37°F / 3°C 21°F / -6°C 52% 30.27 in
(1025 mb)
NW 8.1 mph
(NW 13 kph)
- 10SM
08:53
Partly Cloudy
34°F / 1°C 23°F / -5°C 65% 30.27 in
(1025 mb)
NNW 8.1 mph
(NNW 13 kph)
- 10SM
07:53
Clear
34°F / 1°C 25°F / -4°C 70% 30.24 in
(1024 mb)
Variable 6.9 mph
(Variable 11 kph)
- 10SM
06:53
Clear
32°F / 0°C 25°F / -4°C 75% 30.21 in
(1023 mb)
NW 6.9 mph
(NW 11 kph)
- 10SM
05:53
Overcast
34°F / 1°C 28°F / -2°C 81% 30.15 in
(1021 mb)
Variable 3.5 mph
(Variable 6 kph)
- 10SM
05:29
Overcast
34°F / 1°C 28°F / -2°C 81% 30.15 in
(1021 mb)
NNW 6.9 mph
(NNW 11 kph)
- 10SM
04:53
Overcast
34°F / 1°C 28°F / -2°C 81% 30.15 in
(1021 mb)
NNW 4.6 mph
(NNW 7 kph)
0.00 in
(0.00 mm)
10SM
04:35
Overcast
34°F / 1°C 28°F / -2°C 81% 30.12 in
(1020 mb)
NNW 4.6 mph
(NNW 7 kph)
0.00 in
(0.00 mm)
10SM
04:07
Overcast
36°F / 2°C 28°F / -2°C 75% 30.12 in
(1020 mb)
NNW 6.9 mph
(NNW 11 kph)
0.00 in
(0.00 mm)
10SM
03:53
Overcast
Unknown Precip
36°F / 2°C 30°F / -1°C 81% 30.12 in
(1020 mb)
NNW 9.2 mph
(NNW 15 kph)
0.00 in
(0.00 mm)
10SM
03:44
Overcast
Light Rain
36°F / 2°C 32°F / 0°C 87% 30.12 in
(1020 mb)
NNW 8.1 mph
(NNW 13 kph)
0.00 in
(0.00 mm)
7SM
02:53
Overcast
36°F / 2°C 32°F / 0°C 87% 30.09 in
(1019 mb)
NW 8.1 mph
(NW 13 kph)
- 10SM
02:18
Overcast
36°F / 2°C 32°F / 0°C 87% 30.09 in
(1019 mb)
NW 10.4 mph
(NW 17 kph)
- 10SM
02:06
Overcast
37°F / 3°C 34°F / 1°C 87% 30.09 in
(1019 mb)
NNW 8.1 mph
(NNW 13 kph)
- 10SM
01:53
Overcast
37°F / 3°C 34°F / 1°C 87% 30.06 in
(1018 mb)
NW 11.5 mph
(NW 19 kph)
- 10SM
01:31
Overcast
37°F / 3°C 34°F / 1°C 87% 30.06 in
(1018 mb)
NNW 5.8 mph
(NNW 9 kph)
- 10SM
00:53
Overcast
37°F / 3°C 34°F / 1°C 87% 30.06 in
(1018 mb)
Variable 6.9 mph
(Variable 11 kph)
0.01 in
(0.25 mm)
9SM
00:31
Overcast
37°F / 3°C 34°F / 1°C 87% 30.04 in
(1017 mb)
Variable 4.6 mph
(Variable 7 kph)
0.01 in
(0.25 mm)
8SM
00:14
Overcast
Light Rain
37°F / 3°C 34°F / 1°C 87% 30.04 in
(1017 mb)
Variable 6.9 mph
(Variable 11 kph)
0.01 in
(0.25 mm)
7SM
Time Weather Temperature Dewpoint Humidity Pressure Winds Precip Visibility


Weather for websites

WeatherForYou.com, LLC is not responsible for any damages or problems caused by this service. Current weather conditions are obtained from the closest station including government and personal stations which may have varying degrees of accuracy. Weather forecasts are derived from the NOAA NDFD. Like all things, this site belongs to Jesus Christ... He just trusts me to maintain it. If you have any questions or comments email webmaster@weatherforyou.com

Copyright © 2014, WeatherForYou.com LLC. All rights reserved.